Terminal Aerodrome Forecast
Issued by NWS

Home | Current Version | Previous Version | Text Only | Print | Product List | Glossary Off
Versions: 1 2 3 4 5 6 7 8 9 10 11 12 13 14

000
FTUS43 KFGF 270500
TAFBJI
TAF
KBJI 270520Z 2706/2806 31005KT P6SM OVC015
      TEMPO 2706/2709 -SN
     FM271600 25005KT P6SM OVC025=

USA.gov is the U.S. government's official web portal to all federal, state and local government web resources and services.